Location: Ste-F�licit�
(48.8999°N, 67.3360°W)
Time: 05:47:57
(UTC-05:00)

DELFI C3 - Pass Details

Date: 24 October 2020
Orbit: 532 x 551 km, 97.4° (Epoch: 28 November)

Event Time Altitude Azimuth Distance (km) Brightness Sun altitude
Exits shadow 18:43:42 11° 37° (NE) 1,771 ? -14.1°
Drops below altitude 10° 18:44:06 10° 31° (NNE) 1,843 ? -14.2°
Sets 18:47:14 0° 4° (N) 2,742 ? -14.7°
